CW2971 Weather Reports


time (UTC)temp
C
wind
direction
speed
KPH
gust
KPH
rain 1hr
cm
rain 24hr
cm
rain mn
cm
humidity
%
barometer
mb
20260505183044 27 255 8.0 29.0 0.00 0.00 0.00 39 1013.7
20260505181530 27 92 8.0 19.3 0.00 0.00 0.00 39 1013.9
20260505180035 26 61 8.0 25.7 0.00 0.00 0.00 40 1014.0
20260505174536 27 202 6.4 24.1 0.00 0.00 0.00 41 1013.9
20260505173036 26 295 8.0 27.4 0.00 0.00 0.00 40 1014.1
20260505171533 26 23 4.8 17.7 0.00 0.00 0.00 42 1014.4
20260505170030 26 291 8.0 20.9 0.00 0.00 0.00 43 1014.7
20260505164535 26 281 6.4 29.0 0.00 0.00 0.00 44 1014.6
20260505163030 25 226 8.0 20.9 0.00 0.00 0.00 46 1014.7
20260505161529 25 98 4.8 20.9 0.00 0.00 0.00 48 1014.9
20260505153031 24 203 8.0 19.3 0.00 0.00 0.00 48 1015.0
20260505151527 23 210 8.0 16.1 0.00 0.00 0.00 52 1014.9
20260505124528 18 269 4.8 17.7 0.00 0.00 0.00 64 1015.2
20260505123044 17 217 6.4 20.9 0.00 0.00 0.00 64 1015.3
20260505121534 17 216 4.8 14.5 0.00 0.00 0.00 67 1015.2
20260505120037 16 257 6.4 14.5 0.00 0.00 0.00 69 1015.1
20260505114541 15 220 6.4 14.5 0.00 0.00 0.00 71 1015.1
20260505113029 15 138 4.8 16.1 0.00 0.00 0.00 72 1015.1
20260505111528 14 120 4.8 12.9 0.00 0.00 0.00 74 1014.9
20260505101530 13 265 3.2 9.7 0.00 0.00 0.00 75 1014.4
20260505100031 13 248 1.6 12.9 0.00 0.00 0.00 74 1014.1
20260505094530 14 229 1.6 11.3 0.00 0.00 0.00 74 1014.0
20260505093034 14 233 1.6 9.7 0.00 0.00 0.00 73 1013.9
20260505091540 14 98 1.6 9.7 0.00 0.00 0.00 72 1013.8
20260505090043 15 221 3.2 9.7 0.00 0.00 0.00 72 1013.7
20260505084528 15 235 3.2 16.1 0.00 0.00 0.00 72 1013.8
20260505083028 15 261 1.6 8.0 0.00 0.00 0.00 71 1013.8
20260505081538 15 259 1.6 11.3 0.00 0.00 0.00 70 1013.8
20260505080046 15 252 6.4 16.1 0.00 0.00 0.00 69 1013.5
20260505074530 15 277 3.2 9.7 0.00 0.00 0.00 69 1013.4
20260505073100 15 252 3.2 16.1 0.00 0.00 0.00 69 1013.1
20260505071529 16 211 3.2 12.9 0.00 0.00 0.00 68 1013.1
20260505070028 16 205 3.2 12.9 0.00 0.00 0.00 68 1013.0
20260505064530 16 264 3.2 12.9 0.00 0.00 0.00 67 1013.1
20260505063028 16 140 3.2 19.3 0.00 0.00 0.00 66 1013.3
20260505061529 16 319 4.8 12.9 0.00 0.00 0.00 65 1013.4
20260505060029 16 263 4.8 14.5 0.00 0.00 0.00 64 1013.3
20260505054526 17 272 4.8 14.5 0.00 0.00 0.00 63 1013.5
20260505053030 17 243 4.8 19.3 0.00 0.00 0.00 63 1013.6
20260505051528 17 214 6.4 16.1 0.00 0.00 0.00 63 1013.7
20260505041545 17 243 6.4 14.5 0.00 0.00 0.00 63 1013.7
20260505040030 17 47 3.2 14.5 0.00 0.00 0.00 63 1013.7
20260505034528 17 342 3.2 14.5 0.00 0.00 0.00 62 1013.5
20260505033026 18 269 4.8 19.3 0.00 0.00 0.00 62 1013.5
20260505031536 18 301 6.4 25.7 0.00 0.00 0.00 62 1013.5
20260505030036 18 68 6.4 16.1 0.00 0.00 0.00 62 1013.4
20260505024528 18 233 4.8 24.1 0.00 0.00 0.00 62 1013.4
20260505023036 18 229 4.8 24.1 0.00 0.00 0.00 64 1013.3
20260505021529 18 203 4.8 14.5 0.00 0.00 0.00 64 1013.4
20260505020034 18 165 4.8 17.7 0.00 0.00 0.00 64 1013.5
20260505014529 18 250 4.8 16.1 0.00 0.00 0.00 64 1013.4
20260505013028 18 224 4.8 11.3 0.00 0.00 0.00 64 1013.4
20260505011530 18 130 4.8 12.9 0.00 0.00 0.00 63 1013.2
20260505010026 19 237 4.8 12.9 0.00 0.00 0.00 62 1012.8
20260505004536 19 230 3.2 14.5 0.00 0.00 0.00 61 1012.6
20260505003029 20 156 3.2 19.3 0.00 0.00 0.00 60 1012.4
20260505001527 20 259 4.8 17.7 0.00 0.00 0.00 59 1012.3
20260505000031 20 236 6.4 19.3 0.00 0.00 0.00 58 1012.3
20260504234528 21 156 4.8 17.7 0.00 0.00 0.00 56 1012.1
20260504233032 21 169 6.4 20.9 0.00 0.00 0.00 55 1012.0
20260504231528 22 115 3.2 16.1 0.00 0.00 0.00 53 1011.7
20260504230027 23 209 6.4 19.3 0.00 0.00 0.00 48 1011.7
20260504224529 25 231 8.0 24.1 0.00 0.00 0.00 43 1011.5
20260504223027 25 183 6.4 20.9 0.00 0.00 0.00 35 1011.4
20260504221534 25 238 6.4 24.1 0.00 0.00 0.00 35 1011.4
20260504220028 25 211 4.8 22.5 0.00 0.00 0.00 35 1011.5
20260504214528 26 227 6.4 22.5 0.00 0.00 0.00 34 1011.4
20260504213052 25 266 6.4 24.1 0.00 0.00 0.00 35 1011.6
20260504211530 26 269 4.8 20.9 0.00 0.00 0.00 35 1011.6
20260504210030 25 211 6.4 16.1 0.00 0.00 0.00 35 1011.7
20260504204530 25 290 8.0 19.3 0.00 0.00 0.00 35 1011.7
20260504203033 25 180 6.4 19.3 0.00 0.00 0.00 35 1011.7
20260504201533 25 230 6.4 19.3 0.00 0.00 0.00 36 1011.7
20260504200030 25 309 6.4 22.5 0.00 0.00 0.00 36 1011.7
20260504194530 25 283 6.4 27.4 0.00 0.00 0.00 35 1011.9
20260504193034 25 266 4.8 17.7 0.00 0.00 0.00 36 1012.1
20260504191529 25 207 4.8 16.1 0.00 0.00 0.00 36 1012.3
20260504190029 24 217 6.4 20.9 0.00 0.00 0.00 38 1012.5
20260504184532 24 246 6.4 19.3 0.00 0.00 0.00 37 1012.7